Погода в Оймяконе

Погода в Оймяконе : погода сейчас, прогноз погоды и архив. Всё, что Вы хотите узнать о погоде в Оймяконе!

Хотите узнать прогноз погоды в Оймяконе? Тогда Вам сюда: Погода в Оймяконе

Поиск расширенной информации на нашем сайте:

Другие новости

Новости СМИ2

Главная страница сайта

Новости сайта

03.07.2017

Напоминаем, что на нашем специализированном сайте Метеоцентр.Азия вы можете получить высокодетализированные автоматические прогнозы погоды по пунктам России, СНГ и мира в авиационном формате (включающие направление и скорость ветра, видимость, явления погоды, количество и форму облачности, нижнюю и верхнюю границу облачности).


Погода в Оймяконе - сегодня

Время (UTC), дата Ветер
(°,м/с) 
Видим.   Явления Облачность Т
(°С)
Тd
(°С)
f(%) Тe
(°С)
Pmin
(гПа)
dP
(гПа)
Po
(мм)
O2
(г/м3)
Тmin Tmax R s Состояние
почвы
18 21.09.18 280 (З) 20000 м  слаб. снег{дождь}  10/0 средняя, верхняя 
[Ac trans|Cs]
-0.2 -1.7 90 1015.3  -0.1  695  280           
21 21.09.18 280 (З) 20000 м  слаб. снег  10/0 средняя 
[Ac As]
+0.2 -2.7 81 -1  1015.1  695  280  -0.7    0.1    замёрзшая 
03 22.09.18 340 (С) 20000 м    10/8 1000 м кучево-дожд., средняя 
[Cb cap|Ac und]
+4.2 -6.1 47 +2  1014.5  -0.1  695  276           
06 22.09.18 310 (СЗ) 20000 м  {ливн. осадки}  8/8 1000 м кучево-дожд. 
[Cb cap]
+5.2 -5.7 45 +6  1012.7  -1.2  694  275           
12 22.09.18 тихо ()   20000 м    10/8 1500 м средняя, верхняя 
[Sc|Ac trans|Ci fib]
+0 -5.7 65 1012.9  -0.7  693  280           
15 22.09.18 190 (Ю) 20000 м    10/4 1500 м средняя, верхняя 
[Sc|Ac trans|Ci fib]
-1 -5.6 71 -2  1013.1  -0.1  693  281           
18 22.09.18 180 (Ю) 20000 м    10/6 1500 м средняя, верхняя 
[Sc|Ac trans|Cs]
-1.9 -5.4 77 -1  1012.5  -0.9  692  281           
21 22.09.18 тихо ()   4000 м  слаб. снег  10/5 1000 м средняя 
[Sc|As op]
-1.6 -4 84 -2  1012.2  -0.1  692  281  -2.6    0.0    замёрзшая 
03 23.09.18 040 (СВ) 4000 м  слаб. ливневой снег  10/8 200 м кучево-дожд., средняя 
[Cb cap|As trans]
+0.6 +0.1 96 1010.3  -0.5  691  278           
06 23.09.18 150 (ЮВ) 20000 м  осадки на расстоянии{ливн. осадки, снег}  9/5 300 м кучево-дожд., средняя, верхняя 
[Cb cap|Ac trans|Ci fib]
+2.2 +0.6 89 +2  1009.2  -0.5  691  276           
12 23.09.18 310 (СЗ) 20000 м  слаб. ливневой снег  10/8 1000 м кучево-дожд., средняя, верхняя 
[Cb cap|Ac trans|Ci fib]
-0.4 -1 96 -1  1011.1  0.7  692  279           
15 23.09.18 290 (З) 20000 м  слаб. ливневой снег  10/8 1000 м кучево-дожд., средняя, верхняя 
[Cb cap|Ac trans|Ci fib]
-0.8 -1.4 96 1011.7  0.3  692  280           
18 23.09.18 290 (З) 20000 м  слаб. ливневой снег  10/8 1000 м кучево-дожд., средняя, верхняя 
[Cb cap|Ac trans|Ci fib]
-1 -1.7 95 1012.2  0.3  692  280           
03 24.09.18 290 (З) 20000 м    10/8 1000 м кучево-дожд., средняя 
[Cb cap|Ac und]
+2.5 -1.8 73 +2  1012.8  0.3  693  277           
06 24.09.18 280 (З) 20000 м    10/8 1000 м кучево-дожд., средняя 
[Cb cap|Ac und]
+3.5 -4.3 57 +3  1012.1  -0.2  693  276           
12 24.09.18 280 (З) 20000 м    10/4 1000 м средняя 
[Sc|Ac und]
-0.4 -4.6 73 -1  1015.2  1.1  694  281           
15 24.09.18 320 (СЗ) 20000 м    8/4 1000 м средняя 
[Sc|Ac trans]
-1.3 -5.7 72 -2  1015.7  0.2  695  282           
18 24.09.18 300 (СЗ) 20000 м    3/0 средняя, верхняя 
[Ac trans|Ci fib]
-5.1 -8.8 75 -7  1017.2  0.1  695  286           
21 24.09.18 180 (Ю) 20000 м    9/0 средняя, верхняя 
[Ac trans|Ci fib]
-4.9 -7.7 81 -4  1017  695  286  -6.2        замёрзшая 
03 25.09.18 320 (СЗ) 10 км  слаб. ливневой снег  10/9 1000 м кучево-дожд., средняя, верхняя 
[Cb cap|Ac trans|Cs]
+1.7 -3.4 69 +2  1013.7  -0.7  694  278           
06 25.09.18 270 (З) 20000 м  слаб. ливневой снег  10/9 1000 м кучево-дожд., средняя 
[Cb cap|Ac As]
+2.2 -0.6 82 +2  1013.1  -0.5  694  277           
12 25.09.18 тихо ()   20000 м  {ливн. осадки}  10/8 1000 м кучево-дожд., средняя 
[Cb cap|Ac As]
+0.4 +0.1 98 1014.5  0.4  694  279           
15 25.09.18 тихо ()   20000 м    10/8 1000 м кучево-дожд., средняя 
[Cb cap|Ac As]
+0.5 -0.6 92 +1  1014.2  -0.2  694  279           
18 25.09.18 260 (З) 20000 м  слаб. ливневой снег  10/8 1000 м кучево-дожд., средняя 
[Cb cap|As op]
+0.8 +0.3 96 +1  1013.9  -0.2  694  279           
21 25.09.18 тихо ()   20000 м  в посл. час ливневой снег  10/5 1000 м средняя 
[Sc|As op]
+0.2 -0.4 96 1013.7  -0.3  694  279  -0.1    0.3  <0.5  мокрый или
старый снег
50-90% 
Время (UTC), дата Ветер
(°,м/с) 
Видим.   Явления Облачность Т
(°С)
Тd
(°С)
f(%) Тe
(°С)
Pmin
(гПа)
dP
(гПа)
Po
(мм)
O2
(г/м3)
Тmin Tmax R s Состояние
почвы

Для получения пояснительной информации подведите курсор к названию столбца.

ПОГОДА в Оймяконе - архив

Всё, что Вы хотите узнать о погоде в Оймяконе - удобно и подробно!

Выберите нужную дату (начиная с 1 января 2015* года) и нажмите кнопку "Найти".
Будут отображены архивные сводки погоды по пункту Оймякон, начиная с указанной даты.


Отображать данные в формате CSV (для использования в таблицах Excel)


Внимание! Наш архив погоды предназначен исключительно для личного некоммерческого использования в познавательных целях. Если Вам необходимы официальные справки о состоянии погоды (для производственных, юридических, коммерческих и т.п. целей), обращайтесь в органы Росгидромета.

*Примечание: данная дата относится к архиву по метеостанциям СССР (Россия, СНГ, Балтия).
Архив по метеостанциям Зарубежной Европы и Азии (кроме Китая) хранится 10 дней, по другим регионам земного шара (Китай, Африка, Америка, Австралия, Океания) - 1 день.

Оймякон - район местоположения метеостанции


Название, широта, долгота, высота метеостанции:
Оймякон 63.2°ш. 143.2°д. 741 м над ур. моря [Российская Федерация]

Дополнительная информация

В oтличие oт бoльшинства пoгoдных сайтoв мы публикуем пoдрoбную метеoинфoрмацию в детальнoм прoфессиoнальнoм фoрмате.

Характеристики температуры и влажнoсти вoздуха измеряются на высoте 2 м в тени вдали oт зданий и деревьев.
Скoрoсть ветра измеряется на высoте 10 м (на урoвне рoста челoвека скoрoсть ветра ниже в 1.5-2 раза). Если метеoстанция нахoдится в гoрoде или в лесу, тo скoрoсть ветра занижена на 2-4 м/с пo сравнению с oткрытым местoм. Скoрoсть ветра над акватoриями крупных рек и oзёр, а также на вершинах хoлмoв на 2-5 м/с выше, чем в oбычных услoвиях.
Атмoсфернoе давление в разных тoчках местнoсти мoжет значительнo oтличаться oт давления на метеoстанции, в зависимoсти oт услoвий рельефа (при пoдъёме на 10 м давление пoнижается примернo на 1 мм рт.ст.).